[[{"header":{"parameterUnit":"m.s-1","parameterCategory":2,"la1":30.2991,"la2":30.254,"lo1":-89.0895,"lo2":-89.0444,"dy":0.0017,"dx":0.0017,"nx":28,"ny":28,"refTime":"2025-03-14T09:00:00:Z","depth":"0","parameterNumber":2,"parameterNumberName":"U-component_of_CURRENTS"},"data":[0,0,0,0,0,0,0,0,0,0,0,0,0,0,0,0,0,0,0,0,0,0,0,0,0,0,0,0,0,0,0,0,0,0,0,0,0,0,0,0,0,0,0,0,0,0,0,0,0,0,0,0,0,0,0,0,0,0,-0.2384,-0.2384,0,-0.2355,-0.2354,-0.2354,-0.2311,-0.2311,-0.2311,-0.231,-0.2228,-0.2226,-0.2225,0,0,0,0,0,0,0,0,0,0,0,0,0,-0.2372,-0.2372,-0.2384,-0.2384,-0.2384,-0.2355,-0.2354,-0.2354,-0.2311,-0.2311,-0.2311,-0.231,-0.2229,-0.2227,-0.2224,0,0,0,0,0,0,0,0,0,0,0,0,0,-0.236,-0.2372,-0.2384,-0.2363,-0.2361,-0.2355,-0.2354,-0.2353,-0.2311,-0.2311,-0.231,-0.231,-0.223,-0.2227,-0.2224,-0.2217,0,0,-0.2215,-0.2214,0,0,0,0,0,0,0,0,-0.236,-0.2359,-0.2366,-0.2364,-0.2362,-0.234,-0.232,-0.2307,-0.2312,-0.2326,-0.231,-0.231,-0.2264,-0.2258,-0.2248,-0.2213,-0.221,-0.2215,-0.2214,-0.2212,-0.2212,0,0,0,0,0,0,0,-0.2361,-0.236,-0.2368,-0.2366,-0.2364,-0.2345,-0.2342,-0.2317,-0.2294,-0.2324,-0.2322,-0.2326,-0.2262,-0.2251,-0.2246,-0.2208,-0.2215,-0.2213,-0.2211,-0.221,-0.2172,-0.2172,0,0,0,0,0,0,-0.2376,-0.2361,-0.2369,-0.2368,-0.2365,-0.2346,-0.2343,-0.2344,-0.2295,-0.2289,-0.2327,-0.2324,-0.2256,-0.225,-0.2243,-0.2249,-0.2212,-0.221,-0.2208,-0.2171,-0.2172,-0.2172,0,0,0,0,0,0,-0.2376,-0.2377,-0.237,-0.2367,-0.2366,-0.2347,-0.2349,-0.2344,-0.2337,-0.2298,-0.229,-0.2326,-0.2256,-0.2247,-0.2228,-0.2245,-0.2208,-0.2206,-0.217,-0.2171,-0.2172,-0.225,0,0,0,0,0,0,-0.2375,-0.2377,-0.2378,-0.2368,-0.2367,-0.238,-0.235,-0.2344,-0.2343,-0.2339,-0.2295,-0.2287,-0.2255,-0.2232,-0.2225,-0.224,-0.2204,-0.2169,-0.2171,-0.2172,-0.2247,-0.2254,-0.226,0,0,0,0,0,-0.2375,-0.2384,-0.2378,-0.2379,-0.237,-0.2382,-0.2379,-0.236,-0.2343,-0.235,-0.2316,-0.2288,-0.2235,-0.2231,-0.2222,-0.2237,-0.2169,-0.217,-0.2172,-0.2244,-0.2252,-0.226,0,0,0,0,0,0,-0.2372,-0.2381,-0.2374,-0.2382,-0.2388,-0.2376,-0.2377,-0.2368,-0.2346,-0.2338,-0.2294,-0.2284,-0.2268,-0.2245,-0.2241,-0.2229,-0.2198,-0.2198,-0.2256,-0.2264,-0.227,-0.2291,-0.2201,0,0,0,0,0,-0.2376,-0.2383,-0.2392,-0.2395,-0.2402,-0.2391,-0.239,-0.2385,-0.2369,-0.2359,-0.233,-0.2297,-0.2267,-0.2261,-0.2227,-0.2228,-0.2212,-0.2232,-0.2239,-0.2244,-0.2255,-0.2237,-0.2243,-0.2177,-0.2177,-0.2177,0,0,-0.237,-0.2379,-0.2379,-0.2395,-0.2392,-0.2423,-0.2388,-0.2398,-0.2416,-0.2353,-0.2356,-0.2311,-0.2268,-0.2261,-0.2254,-0.2247,-0.2259,-0.2246,-0.2252,-0.2259,-0.2239,-0.2245,-0.2251,-0.2178,-0.2178,-0.2178,0,0,-0.2387,-0.2379,-0.2403,-0.2421,-0.2439,-0.2439,-0.2449,-0.2449,-0.2439,-0.2441,-0.2393,-0.2364,-0.2331,-0.2305,-0.2286,-0.2311,-0.2283,-0.2302,-0.2365,-0.2347,-0.2352,-0.2357,-0.2367,-0.2372,-0.2319,-0.2319,-0.232,0,-0.2384,-0.2423,-0.241,-0.2453,-0.2481,-0.2456,-0.2506,-0.2492,-0.2484,-0.2483,-0.2453,-0.2396,-0.2353,-0.2345,-0.235,-0.2326,-0.2322,-0.234,-0.2357,-0.236,-0.2364,-0.2372,-0.2377,-0.2323,-0.2323,-0.2323,-0.2322,0,-0.2428,-0.247,-0.2488,-0.2537,-0.256,-0.2595,-0.2598,-0.2605,-0.2587,-0.257,-0.2547,-0.2483,-0.2456,-0.2434,-0.2398,-0.2404,-0.2396,-0.2356,-0.234,-0.2375,-0.2382,-0.2385,-0.2329,-0.2328,-0.2326,-0.2325,0,0,-0.2389,-0.2505,-0.2507,-0.2569,-0.2617,-0.2642,-0.2676,-0.2702,-0.272,-0.2677,-0.2696,-0.2622,-0.2576,-0.2552,-0.2498,-0.2481,-0.2496,-0.2441,-0.2438,-0.2459,-0.2484,-0.2424,-0.2421,-0.2461,-0.2461,-0.2461,-0.2488,0,-0.2432,-0.2553,-0.2588,-0.2691,-0.2761,-0.2773,-0.2809,-0.2819,-0.2804,-0.2806,-0.2728,-0.2702,-0.2625,-0.2607,-0.258,-0.2504,-0.2504,-0.2494,-0.2441,-0.244,-0.2386,-0.2421,-0.2207,-0.2207,-0.2491,-0.2491,-0.2491,0,-0.2452,-0.2549,-0.2674,-0.2808,-0.2833,-0.2876,-0.294,-0.2968,-0.2955,-0.2937,-0.29,-0.2835,-0.2789,-0.2715,-0.2632,-0.2632,-0.2576,-0.2519,-0.2518,-0.2435,-0.2383,-0.2212,-0.2202,-0.2163,-0.2496,-0.2495,-0.2495,0,-0.244,-0.2593,-0.2705,-0.275,-0.2886,-0.293,-0.2977,-0.2997,-0.3009,-0.3008,-0.2998,-0.2946,-0.2885,-0.2823,-0.2691,-0.2672,-0.2605,-0.2563,-0.2467,-0.2464,-0.2256,-0.2233,-0.2201,-0.2528,-0.2528,-0.2528,-0.2528,0,-0.2479,-0.256,-0.2709,-0.2774,-0.2877,-0.2956,-0.3023,-0.3055,-0.3081,-0.3057,-0.3047,-0.2994,-0.2901,-0.2834,-0.2749,-0.2615,-0.2651,-0.249,-0.2463,-0.228,-0.2259,-0.2194,-0.2206,-0.2529,-0.2529,-0.2529,-0.2528,0,-0.2452,-0.2553,-0.2679,-0.2838,-0.2878,-0.2939,-0.3036,-0.3057,-0.3101,-0.3074,-0.3066,-0.3023,-0.2921,-0.2853,-0.2737,-0.2655,-0.2492,-0.2512,-0.2321,-0.227,-0.2139,-0.2162,-0.212,-0.2079,-0.2424,-0.2423,-0.2422,0,-0.2456,-0.2522,-0.269,-0.2723,-0.2792,-0.289,-0.2925,-0.3031,-0.3032,-0.3042,-0.2997,-0.2947,-0.2796,-0.2673,-0.253,-0.2417,-0.2418,-0.2227,-0.2142,-0.2119,-0.2125,-0.2149,-0.212,-0.191,-0.1905,-0.1901,-0.1897,0,-0.243,-0.2472,-0.2559,-0.2639,-0.2692,-0.2755,-0.2814,-0.283,-0.2891,-0.285,-0.2718,-0.2618,-0.2511,-0.226,-0.2208,-0.2125,-0.2136,-0.2136,-0.2131,-0.1746,-0.1747,-0.1696,-0.1951,-0.1859,-0.1862,-0.1865,-0.1867,-0.1869,-0.2332,-0.2369,-0.243,-0.2488,-0.2542,-0.2518,-0.2488,-0.2522,-0.2459,-0.2333,-0.2367,-0.2143,-0.2026,-0.1859,-0.1828,-0.1712,-0.1826,-0.1631,-0.1674,-0.1715,-0.1626,-0.1832,-0.1696,-0.1699,-0.1701,-0.1703,-0.1705,0,-0.2153,-0.2197,-0.2253,-0.2271,-0.2233,-0.2325,-0.2312,-0.2218,-0.2047,-0.1987,-0.1814,-0.156,-0.1381,-0.1392,-0.1283,-0.1233,-0.1223,-0.1264,-0.1215,-0.1221,-0.1378,-0.1302,-0.1049,-0.1049,-0.1049,-0.1049,-0.1049,-0.1049,-0.2043,-0.2009,-0.2054,-0.1917,-0.1928,-0.1802,-0.1743,-0.1626,-0.1544,-0.1267,-0.1121,-0.1039,-0.1053,-0.1056,-0.0998,-0.0975,-0.1002,-0.0943,-0.11,-0.116,-0.1197,-0.1233,-0.1163,-0.0885,-0.0885,-0.0816,-0.0816,-0.0815]},{"header":{"parameterUnit":"m.s-1","parameterCategory":2,"la1":30.2991,"la2":30.254,"lo1":-89.0895,"lo2":-89.0444,"dy":0.0017,"dx":0.0017,"nx":28,"ny":28,"refTime":"2025-03-14T09:00:00:Z","depth":"0","parameterNumber":3,"parameterNumberName":"V-component_of_CURRENTS"},"data":[0,0,0,0,0,0,0,0,0,0,0,0,0,0,0,0,0,0,0,0,0,0,0,0,0,0,0,0,0,0,0,0,0,0,0,0,0,0,0,0,0,0,0,0,0,0,0,0,0,0,0,0,0,0,0,0,0,0,0.0468,0.047,0,0.0571,0.0572,0.0574,0.0606,0.0605,0.0605,0.0604,0.0694,0.0697,0.0699,0,0,0,0,0,0,0,0,0,0,0,0,0,0.037,0.0372,0.0468,0.047,0.0471,0.0571,0.0572,0.0574,0.0606,0.0605,0.0605,0.0604,0.0693,0.0696,0.07,0,0,0,0,0,0,0,0,0,0,0,0,0,0.0437,0.0372,0.0468,0.0499,0.0502,0.0571,0.0572,0.0574,0.0606,0.0605,0.0605,0.0604,0.0692,0.0696,0.07,0.0742,0,0,0.0713,0.0715,0,0,0,0,0,0,0,0,0.0433,0.0441,0.0493,0.0497,0.0501,0.0575,0.0571,0.063,0.0606,0.0567,0.0604,0.0603,0.0653,0.0661,0.0682,0.0746,0.075,0.0714,0.0716,0.0718,0.0719,0,0,0,0,0,0,0,0.0428,0.0437,0.0509,0.0494,0.0499,0.0532,0.054,0.0583,0.0613,0.057,0.0573,0.0584,0.0655,0.0678,0.0684,0.0751,0.0714,0.0717,0.072,0.0722,0.0869,0.087,0,0,0,0,0,0,0.0413,0.0432,0.0506,0.0512,0.0464,0.0534,0.0543,0.0552,0.0613,0.0622,0.0585,0.0585,0.0671,0.0679,0.0688,0.075,0.0718,0.0722,0.0725,0.0867,0.0869,0.0871,0,0,0,0,0,0,0.041,0.0418,0.0502,0.0474,0.0487,0.0535,0.0546,0.0554,0.0575,0.0624,0.0632,0.0596,0.0671,0.0682,0.0736,0.0753,0.0724,0.0728,0.0866,0.0868,0.087,0.0868,0,0,0,0,0,0,0.0407,0.0417,0.0417,0.0473,0.0488,0.0539,0.0547,0.0557,0.0583,0.0584,0.0637,0.0644,0.0671,0.073,0.074,0.0758,0.0731,0.0864,0.0867,0.0869,0.0866,0.087,0.0872,0,0,0,0,0,0.0403,0.0406,0.0416,0.0425,0.0487,0.0539,0.055,0.0582,0.0584,0.0596,0.0639,0.0642,0.0753,0.0735,0.0747,0.0766,0.0863,0.0866,0.0869,0.0865,0.0869,0.0872,0,0,0,0,0,0,0.0366,0.0412,0.0423,0.044,0.0484,0.0544,0.0558,0.0581,0.0625,0.0622,0.0666,0.0678,0.0729,0.0753,0.0731,0.0817,0.0806,0.0812,0.0799,0.0803,0.0806,0.079,0.0735,0,0,0,0,0,0.0357,0.0368,0.0422,0.0435,0.0454,0.0505,0.0529,0.0552,0.0599,0.0617,0.0659,0.0704,0.0753,0.078,0.0822,0.0874,0.0889,0.0894,0.0897,0.0899,0.0896,0.0954,0.0961,0.088,0.088,0.088,0,0,0.0344,0.0372,0.0377,0.0428,0.0461,0.0494,0.0517,0.055,0.058,0.062,0.0672,0.0715,0.0769,0.0826,0.0851,0.0847,0.0927,0.0903,0.0904,0.0899,0.0957,0.0965,0.0972,0.0882,0.0882,0.0882,0,0,0.0325,0.035,0.0352,0.0391,0.0439,0.0479,0.0486,0.0549,0.0577,0.0635,0.0673,0.0729,0.08,0.0851,0.0883,0.0931,0.0938,0.094,0.0948,0.1005,0.1011,0.1018,0.1027,0.1034,0.0945,0.0945,0.0945,0,0.0305,0.0316,0.0363,0.0384,0.041,0.047,0.0486,0.0535,0.0609,0.0641,0.0644,0.0773,0.0813,0.0898,0.0914,0.0936,0.0953,0.0927,0.1007,0.1014,0.102,0.1028,0.1036,0.0946,0.0946,0.0946,0.0946,0,0.0289,0.0305,0.0313,0.0357,0.0399,0.0421,0.0495,0.0541,0.058,0.0632,0.0717,0.0788,0.0861,0.0889,0.0916,0.099,0.098,0.1,0.0992,0.1028,0.1034,0.1042,0.0946,0.0946,0.0946,0.0946,0,0,0.022,0.0284,0.0283,0.0296,0.0381,0.0408,0.0477,0.0551,0.0591,0.0671,0.0731,0.0829,0.0867,0.0907,0.0958,0.1013,0.1066,0.1022,0.1025,0.1019,0.1158,0.1081,0.1082,0.1102,0.1104,0.1105,0.1137,0,0.0186,0.0187,0.0253,0.0276,0.0283,0.0382,0.0441,0.0522,0.0598,0.0677,0.0771,0.0839,0.0876,0.0908,0.0976,0.1051,0.109,0.1053,0.1135,0.1136,0.1055,0.1091,0.1038,0.1057,0.1145,0.1146,0.1147,0,0.0136,0.0145,0.0139,0.0218,0.0235,0.027,0.0369,0.0435,0.0575,0.0635,0.0739,0.0816,0.0924,0.0938,0.108,0.1054,0.1097,0.1147,0.115,0.1084,0.1075,0.1042,0.1068,0.1165,0.1159,0.1158,0.1157,0,0.0014,0.007,0.0051,0.0075,0.0175,0.0204,0.0269,0.0402,0.0457,0.0603,0.0644,0.0805,0.0855,0.0972,0.1069,0.1082,0.1198,0.1232,0.1198,0.1192,0.1164,0.1152,0.1285,0.1311,0.1311,0.1311,0.1311,0,-0.0067,-0.0071,-0.0016,-0.0028,-0.0024,0.0095,0.0136,0.0231,0.0366,0.043,0.0594,0.0655,0.0864,0.0961,0.1064,0.114,0.1192,0.1196,0.1204,0.1159,0.1146,0.1242,0.1274,0.1312,0.1312,0.1311,0.1311,0,-0.0196,-0.0162,-0.018,-0.0113,-0.0093,-0.0097,0.0022,0.0073,0.0202,0.0291,0.033,0.0535,0.0667,0.084,0.1018,0.1093,0.1219,0.1201,0.1104,0.1099,0.1163,0.1194,0.1261,0.1295,0.1193,0.1192,0.119,0,-0.0258,-0.0296,-0.0288,-0.0301,-0.0276,-0.0247,-0.0206,-0.0049,0.0016,0.0208,0.0237,0.0393,0.0515,0.0731,0.0884,0.1039,0.1135,0.1073,0.1098,0.1156,0.12,0.1213,0.1239,0.106,0.1058,0.1056,0.1054,0,-0.0376,-0.0392,-0.0413,-0.0456,-0.0446,-0.0401,-0.0333,-0.0299,-0.0095,-0.0007,0.0143,0.0258,0.044,0.0617,0.0786,0.0876,0.11,0.1036,0.1155,0.1146,0.1113,0.1151,0.1021,0.1038,0.1039,0.1041,0.1042,0.1042,-0.0466,-0.0525,-0.0562,-0.0587,-0.0571,-0.0508,-0.0455,-0.036,-0.0247,-0.005,0.0034,0.0252,0.0442,0.068,0.0762,0.0931,0.0952,0.1026,0.1069,0.1085,0.1094,0.0886,0.0873,0.0874,0.0874,0.0875,0.0875,0,-0.0553,-0.0605,-0.0662,-0.0665,-0.0637,-0.0595,-0.0486,-0.0396,-0.0257,-0.0085,0.0058,0.038,0.053,0.0736,0.0923,0.1008,0.1039,0.1074,0.1133,0.117,0.1049,0.1021,0.0967,0.0967,0.0967,0.0967,0.0967,0.0967,-0.0597,-0.0689,-0.0713,-0.07,-0.0675,-0.056,-0.0476,-0.036,-0.0201,0.0079,0.0342,0.0528,0.0818,0.0999,0.117,0.1171,0.1296,0.1212,0.1328,0.1299,0.13,0.1301,0.1289,0.1292,0.1292,0.143,0.1432,0.1433]}],[{"header":{"parameterUnit":"m.s-1","parameterCategory":2,"la1":30.2991,"la2":30.254,"lo1":-89.0895,"lo2":-89.0444,"dy":0.0017,"dx":0.0017,"nx":28,"ny":28,"refTime":"2025-03-14T09:00:00:Z","depth":"2","parameterNumber":2,"parameterNumberName":"U-component_of_CURRENTS"},"data":[0,0,0,0,0,0,0,0,0,0,0,0,0,0,0,0,0,0,0,0,0,0,0,0,0,0,0,0,0,0,0,0,0,0,0,0,0,0,0,0,0,0,0,0,0,0,0,0,0,0,0,0,0,0,0,0,0,0,-0.225,-0.225,0,-0.2234,-0.2234,-0.2233,-0.2194,-0.2194,-0.2193,-0.2193,-0.2115,-0.2114,-0.2112,0,0,0,0,0,0,0,0,0,0,0,0,0,-0.2255,-0.2255,-0.225,-0.225,-0.225,-0.2234,-0.2234,-0.2233,-0.2194,-0.2194,-0.2193,-0.2192,-0.2116,-0.2114,-0.2112,0,0,0,0,0,0,0,0,0,0,0,0,0,-0.2245,-0.2255,-0.225,-0.223,-0.2229,-0.2234,-0.2234,-0.2233,-0.2195,-0.2194,-0.2193,-0.2192,-0.2116,-0.2114,-0.2112,-0.2115,0,0,-0.2105,-0.2104,0,0,0,0,0,0,0,0,-0.2246,-0.2245,-0.2233,-0.2232,-0.223,-0.2217,-0.2207,-0.2191,-0.2195,-0.2205,-0.2193,-0.2192,-0.2146,-0.2141,-0.2137,-0.2112,-0.2109,-0.2105,-0.2103,-0.2102,-0.2102,0,0,0,0,0,0,0,-0.2246,-0.2245,-0.2241,-0.2233,-0.2231,-0.2226,-0.2223,-0.2204,-0.2178,-0.2204,-0.2202,-0.2204,-0.2144,-0.214,-0.2135,-0.2107,-0.2105,-0.2103,-0.2101,-0.21,-0.2068,-0.2069,0,0,0,0,0,0,-0.2254,-0.2246,-0.2242,-0.2241,-0.2239,-0.2226,-0.2223,-0.222,-0.2179,-0.2173,-0.2205,-0.2202,-0.2144,-0.2138,-0.2132,-0.2124,-0.2102,-0.21,-0.2099,-0.2068,-0.2069,-0.2069,0,0,0,0,0,0,-0.2254,-0.2253,-0.2242,-0.2245,-0.2244,-0.2227,-0.2224,-0.2221,-0.2211,-0.2181,-0.2173,-0.22,-0.2143,-0.2135,-0.2117,-0.2121,-0.2099,-0.2097,-0.2067,-0.2068,-0.2069,-0.2114,0,0,0,0,0,0,-0.2254,-0.2253,-0.225,-0.2246,-0.2244,-0.2249,-0.2225,-0.2221,-0.2216,-0.2212,-0.2174,-0.2166,-0.2142,-0.2121,-0.2115,-0.2117,-0.2095,-0.2067,-0.2068,-0.2069,-0.2111,-0.2116,-0.2119,0,0,0,0,0,-0.2254,-0.2254,-0.225,-0.225,-0.2241,-0.225,-0.2249,-0.2232,-0.2217,-0.2219,-0.2192,-0.2167,-0.2122,-0.2119,-0.2112,-0.2114,-0.2066,-0.2067,-0.2068,-0.211,-0.2115,-0.2119,0,0,0,0,0,0,-0.225,-0.225,-0.2246,-0.2244,-0.225,-0.2244,-0.2241,-0.2235,-0.2217,-0.2206,-0.2173,-0.2165,-0.2151,-0.2129,-0.2127,-0.2109,-0.209,-0.209,-0.2124,-0.2129,-0.2132,-0.2141,-0.2093,0,0,0,0,0,-0.2251,-0.2249,-0.2255,-0.2252,-0.2255,-0.2249,-0.2248,-0.2243,-0.223,-0.2221,-0.2198,-0.2171,-0.2153,-0.2137,-0.2119,-0.2109,-0.2092,-0.2106,-0.211,-0.2113,-0.2117,-0.21,-0.2103,-0.2073,-0.2073,-0.2073,0,0,-0.2246,-0.2248,-0.2244,-0.2252,-0.2249,-0.2264,-0.2245,-0.2247,-0.2255,-0.2215,-0.2208,-0.2185,-0.2154,-0.2144,-0.2135,-0.2123,-0.2115,-0.2115,-0.2118,-0.2119,-0.2102,-0.2105,-0.2107,-0.2074,-0.2074,-0.2073,0,0,-0.2249,-0.224,-0.2246,-0.2257,-0.2266,-0.2268,-0.2272,-0.2272,-0.2263,-0.2263,-0.2234,-0.2217,-0.2189,-0.217,-0.2156,-0.2172,-0.214,-0.2163,-0.2185,-0.2169,-0.2171,-0.2173,-0.2163,-0.2163,-0.2161,-0.2161,-0.2161,0,-0.2243,-0.2255,-0.225,-0.2269,-0.228,-0.2273,-0.2293,-0.2289,-0.2284,-0.2278,-0.2265,-0.2229,-0.2204,-0.2188,-0.2194,-0.218,-0.2167,-0.2169,-0.2174,-0.2176,-0.2177,-0.2165,-0.2165,-0.2163,-0.2163,-0.2163,-0.2163,0,-0.226,-0.2272,-0.2277,-0.2298,-0.2311,-0.2324,-0.2331,-0.2332,-0.2322,-0.2318,-0.2303,-0.2272,-0.2249,-0.224,-0.222,-0.2214,-0.2201,-0.2185,-0.2163,-0.2183,-0.2169,-0.2168,-0.2167,-0.2166,-0.2165,-0.2165,0,0,-0.223,-0.2281,-0.228,-0.2304,-0.2329,-0.2342,-0.2355,-0.2366,-0.2372,-0.2355,-0.2356,-0.2325,-0.2304,-0.2287,-0.2258,-0.2243,-0.2241,-0.2219,-0.2217,-0.221,-0.2209,-0.2131,-0.2122,-0.2223,-0.2223,-0.2223,-0.2199,0,-0.2242,-0.2292,-0.231,-0.2351,-0.2376,-0.2385,-0.2402,-0.2409,-0.2405,-0.2403,-0.2365,-0.2358,-0.2322,-0.2314,-0.2291,-0.2252,-0.224,-0.2249,-0.219,-0.2188,-0.2117,-0.2119,-0.1923,-0.1879,-0.2198,-0.2198,-0.2198,0,-0.2244,-0.2283,-0.2335,-0.2387,-0.2397,-0.2425,-0.245,-0.2465,-0.246,-0.2454,-0.2433,-0.2407,-0.2376,-0.235,-0.2288,-0.2294,-0.2259,-0.223,-0.2228,-0.2137,-0.2107,-0.1909,-0.1865,-0.2196,-0.2196,-0.2196,-0.2196,0,-0.2228,-0.2289,-0.2336,-0.2356,-0.2418,-0.244,-0.2465,-0.2479,-0.2496,-0.249,-0.25,-0.245,-0.2439,-0.2376,-0.2327,-0.23,-0.2273,-0.2224,-0.2124,-0.2119,-0.1931,-0.1909,-0.2194,-0.2194,-0.2194,-0.2194,-0.2195,0,-0.2226,-0.2257,-0.2338,-0.2366,-0.2417,-0.2452,-0.2495,-0.2509,-0.2534,-0.251,-0.2526,-0.2476,-0.2448,-0.2422,-0.235,-0.2242,-0.229,-0.2126,-0.2103,-0.1942,-0.1921,-0.2178,-0.2176,-0.2194,-0.2194,-0.2194,-0.2194,0,-0.2196,-0.2247,-0.2309,-0.239,-0.2416,-0.2451,-0.2526,-0.2533,-0.258,-0.255,-0.255,-0.2527,-0.2428,-0.2428,-0.234,-0.2275,-0.2187,-0.2153,-0.1976,-0.1931,-0.2027,-0.2028,-0.1976,-0.1973,-0.197,-0.1968,-0.1966,0,-0.218,-0.2223,-0.2325,-0.2344,-0.2385,-0.2447,-0.2464,-0.2537,-0.2525,-0.2511,-0.2461,-0.2434,-0.226,-0.218,-0.2091,-0.1987,-0.2103,-0.1822,-0.1716,-0.202,-0.2003,-0.2008,-0.2013,-0.149,-0.1485,-0.148,-0.1477,0,-0.2158,-0.2209,-0.225,-0.2298,-0.2331,-0.2365,-0.2388,-0.2376,-0.2382,-0.2342,-0.217,-0.2043,-0.1961,-0.1726,-0.1736,-0.1649,-0.1812,-0.172,-0.2083,-0.1581,-0.156,-0.1545,-0.1565,-0.1436,-0.144,-0.1443,-0.1445,-0.1447,-0.2117,-0.2141,-0.2183,-0.2192,-0.2237,-0.2178,-0.209,-0.2094,-0.1996,-0.1837,-0.1835,-0.1605,-0.1593,-0.1378,-0.1327,-0.136,-0.1445,-0.1405,-0.1419,-0.1438,-0.1391,-0.1367,-0.1199,-0.1201,-0.1203,-0.1205,-0.1207,0,-0.2017,-0.203,-0.2053,-0.2029,-0.1975,-0.2057,-0.1942,-0.1793,-0.1554,-0.1523,-0.1358,-0.1099,-0.0961,-0.101,-0.0936,-0.0937,-0.0936,-0.0944,-0.093,-0.0969,-0.1004,-0.0937,-0.0623,-0.0621,-0.062,-0.0619,0,0,-0.1954,-0.1899,-0.1882,-0.1713,-0.1717,-0.1533,-0.1393,-0.1216,-0.1114,-0.0895,-0.0805,-0.0871,-0.0884,-0.0722,-0.0714,-0.065,-0.0805,-0.0621,-0.1077,-0.1092,-0.1125,-0.1245,-0.1181,0,0,0,0,0]},{"header":{"parameterUnit":"m.s-1","parameterCategory":2,"la1":30.2991,"la2":30.254,"lo1":-89.0895,"lo2":-89.0444,"dy":0.0017,"dx":0.0017,"nx":28,"ny":28,"refTime":"2025-03-14T09:00:00:Z","depth":"2","parameterNumber":3,"parameterNumberName":"V-component_of_CURRENTS"},"data":[0,0,0,0,0,0,0,0,0,0,0,0,0,0,0,0,0,0,0,0,0,0,0,0,0,0,0,0,0,0,0,0,0,0,0,0,0,0,0,0,0,0,0,0,0,0,0,0,0,0,0,0,0,0,0,0,0,0,-0.0733,-0.0732,0,-0.0664,-0.0664,-0.0663,-0.0623,-0.0623,-0.0623,-0.0623,-0.0549,-0.0547,-0.0545,0,0,0,0,0,0,0,0,0,0,0,0,0,-0.0786,-0.0785,-0.0733,-0.0732,-0.0731,-0.0665,-0.0664,-0.0663,-0.0623,-0.0623,-0.0623,-0.0623,-0.055,-0.0548,-0.0545,0,0,0,0,0,0,0,0,0,0,0,0,0,-0.0744,-0.0785,-0.0733,-0.0704,-0.0701,-0.0665,-0.0664,-0.0662,-0.0623,-0.0623,-0.0623,-0.0623,-0.0551,-0.0548,-0.0545,-0.0529,0,0,-0.0536,-0.0535,0,0,0,0,0,0,0,0,-0.0747,-0.0742,-0.0709,-0.0706,-0.0703,-0.0653,-0.0655,-0.0618,-0.0623,-0.0652,-0.0623,-0.0623,-0.0584,-0.0579,-0.0565,-0.0526,-0.0523,-0.0536,-0.0534,-0.0533,-0.0532,0,0,0,0,0,0,0,-0.075,-0.0744,-0.0705,-0.0708,-0.0704,-0.068,-0.0674,-0.0648,-0.0618,-0.0649,-0.0646,-0.064,-0.0582,-0.0567,-0.0563,-0.0522,-0.0536,-0.0534,-0.0532,-0.0531,-0.0431,-0.043,0,0,0,0,0,0,-0.0762,-0.0747,-0.0707,-0.0703,-0.0726,-0.068,-0.0673,-0.0668,-0.0619,-0.0611,-0.0641,-0.0639,-0.0572,-0.0566,-0.056,-0.0518,-0.0533,-0.053,-0.0529,-0.0432,-0.0431,-0.043,0,0,0,0,0,0,-0.0764,-0.0759,-0.071,-0.0724,-0.0716,-0.0679,-0.0674,-0.0667,-0.065,-0.0612,-0.0605,-0.063,-0.0572,-0.0564,-0.0527,-0.0516,-0.0529,-0.0527,-0.0433,-0.0432,-0.0431,-0.0447,0,0,0,0,0,0,-0.0766,-0.076,-0.076,-0.0725,-0.0716,-0.0687,-0.0674,-0.0666,-0.0647,-0.0644,-0.0601,-0.0594,-0.0571,-0.0532,-0.0524,-0.0512,-0.0524,-0.0435,-0.0433,-0.0431,-0.0448,-0.0447,-0.0446,0,0,0,0,0,-0.0768,-0.0768,-0.076,-0.0755,-0.0717,-0.0687,-0.068,-0.0652,-0.0647,-0.0637,-0.0605,-0.0595,-0.0515,-0.0529,-0.052,-0.0507,-0.0435,-0.0433,-0.0431,-0.0449,-0.0447,-0.0446,0,0,0,0,0,0,-0.0789,-0.0763,-0.0754,-0.0746,-0.0719,-0.0681,-0.067,-0.0654,-0.0621,-0.0618,-0.0585,-0.0575,-0.0539,-0.0518,-0.0534,-0.0471,-0.0473,-0.0469,-0.0489,-0.0487,-0.0486,-0.0489,-0.0522,0,0,0,0,0,-0.0795,-0.0789,-0.0758,-0.0751,-0.0739,-0.0705,-0.069,-0.0672,-0.064,-0.0625,-0.0594,-0.0558,-0.0523,-0.0503,-0.0472,-0.0439,-0.0398,-0.0423,-0.0422,-0.0421,-0.0416,-0.0352,-0.0344,-0.0423,-0.0423,-0.0423,0,0,-0.0804,-0.0786,-0.0785,-0.0755,-0.0732,-0.0712,-0.0695,-0.0673,-0.0652,-0.0623,-0.0584,-0.0555,-0.0514,-0.0475,-0.0457,-0.0457,-0.0372,-0.0419,-0.0419,-0.0414,-0.0349,-0.0341,-0.0334,-0.0422,-0.0422,-0.0422,0,0,-0.0814,-0.08,-0.0797,-0.0774,-0.0742,-0.0718,-0.0714,-0.0674,-0.0651,-0.0615,-0.0585,-0.0546,-0.0498,-0.046,-0.0438,-0.041,-0.0371,-0.0402,-0.0396,-0.0333,-0.0326,-0.032,-0.024,-0.0226,-0.0399,-0.0399,-0.0399,0,-0.0829,-0.0814,-0.079,-0.0776,-0.0758,-0.0723,-0.071,-0.068,-0.0632,-0.0609,-0.0605,-0.0517,-0.0488,-0.043,-0.0421,-0.0407,-0.036,-0.0409,-0.0332,-0.0325,-0.0318,-0.0237,-0.0222,-0.04,-0.04,-0.04,-0.04,0,-0.0832,-0.0817,-0.081,-0.0781,-0.0759,-0.0741,-0.07,-0.0669,-0.0642,-0.0611,-0.0553,-0.0506,-0.0451,-0.0437,-0.0422,-0.0357,-0.0334,-0.0342,-0.034,-0.0311,-0.0228,-0.0211,-0.0401,-0.0401,-0.04,-0.04,0,0,-0.0877,-0.0826,-0.0823,-0.0807,-0.0761,-0.0744,-0.0702,-0.0655,-0.0619,-0.0577,-0.0521,-0.0471,-0.0446,-0.0417,-0.0385,-0.0334,-0.0243,-0.032,-0.0316,-0.0246,-0.0084,-0.0075,-0.0056,-0.024,-0.0238,-0.0236,-0.0039,0,-0.0887,-0.0869,-0.0833,-0.0807,-0.0794,-0.0741,-0.0702,-0.0655,-0.0605,-0.0539,-0.0487,-0.0428,-0.0437,-0.04,-0.0353,-0.0265,-0.0204,-0.0294,-0.0117,-0.0111,-0.0112,-0.0038,-0.011,0.0058,-0.0023,-0.0021,-0.0019,0,-0.0904,-0.0888,-0.0871,-0.0814,-0.0802,-0.0768,-0.0695,-0.0659,-0.0564,-0.0525,-0.0462,-0.0411,-0.0321,-0.0335,-0.0179,-0.0235,-0.0162,-0.0102,-0.0093,-0.0069,-0.0071,0.0015,0.0091,0.0009,0.0007,0.0005,0.0003,0,-0.0962,-0.0911,-0.0899,-0.0883,-0.0816,-0.0778,-0.0734,-0.0651,-0.0614,-0.0503,-0.0447,-0.0355,-0.0267,-0.0188,-0.0068,-0.0114,0.0117,0.0071,0.0153,0.0155,0.0138,0.0135,0.0184,0.0184,0.0183,0.0183,0.0182,0,-0.0998,-0.0988,-0.0914,-0.0912,-0.0879,-0.0811,-0.076,-0.07,-0.0598,-0.0533,-0.0442,-0.035,-0.0225,-0.0085,-0.0021,0.0138,0.0161,0.0182,0.0212,0.0132,0.0126,0.0104,0.0093,0.019,0.0188,0.0187,0.0186,0,-0.1077,-0.1031,-0.1018,-0.0941,-0.091,-0.0892,-0.0796,-0.0748,-0.064,-0.0537,-0.0495,-0.031,-0.0121,0.0012,0.0198,0.023,0.0355,0.0402,0.0313,0.0328,0.0338,0.0323,0.0508,0.051,0.0512,0.0514,0.0515,0,-0.1114,-0.1118,-0.1064,-0.1051,-0.1011,-0.096,-0.0912,-0.0799,-0.0733,-0.0514,-0.0452,-0.0222,-0.0105,0.0185,0.0313,0.0463,0.0465,0.0503,0.0383,0.0363,0.0374,0.0356,0.0339,0.0371,0.0371,0.0371,0.0371,0,-0.1196,-0.1179,-0.1171,-0.115,-0.11,-0.1045,-0.0949,-0.0906,-0.0739,-0.0633,-0.0444,-0.0334,-0.0033,0.0127,0.036,0.0422,0.0461,0.0506,0.0551,0.0281,0.0245,0.0251,0.0237,0.0371,0.0371,0.0371,0.0371,0.0371,-0.1255,-0.128,-0.1263,-0.1243,-0.1186,-0.1101,-0.1057,-0.0931,-0.0828,-0.06,-0.0468,-0.0244,-0.0083,0.0227,0.0342,0.0488,0.0476,0.0484,0.048,0.0477,0.0406,0.0373,0.0513,0.0514,0.0514,0.0515,0.0515,0,-0.1326,-0.1345,-0.1345,-0.1298,-0.1242,-0.1176,-0.1056,-0.0973,-0.0843,-0.0599,-0.0422,-0.0209,-0.0024,0.0183,0.0365,0.0433,0.0386,0.0472,0.0385,0.0384,0.0384,0.0304,0.0387,0.0387,0.0388,0.0388,0,0,-0.1366,-0.1405,-0.1406,-0.1345,-0.1288,-0.1178,-0.111,-0.0967,-0.0787,-0.0563,-0.0356,-0.0121,0.004,0.0161,0.0244,0.0335,0.0339,0.0336,0.0423,0.0306,0.0305,0.037,0.0245,0,0,0,0,0]}],[{"header":{"parameterUnit":"m.s-1","parameterCategory":2,"la1":30.2991,"la2":30.254,"lo1":-89.0895,"lo2":-89.0444,"dy":0.0017,"dx":0.0017,"nx":28,"ny":28,"refTime":"2025-03-14T09:00:00:Z","depth":"4","parameterNumber":2,"parameterNumberName":"U-component_of_CURRENTS"},"data":[0,0,0,0,0,0,0,0,0,0,0,0,0,0,0,0,0,0,0,0,0,0,0,0,0,0,0,0,0,0,0,0,0,0,0,0,0,0,0,0,0,0,0,0,0,0,0,0,0,0,0,0,0,0,0,0,0,0,-0.0561,-0.0562,0,-0.0635,-0.0636,-0.0637,-0.0702,-0.0702,-0.0703,-0.0703,-0.0717,-0.0716,-0.0716,0,0,0,0,0,0,0,0,0,0,0,0,0,-0.051,-0.051,-0.0561,-0.0562,-0.0562,-0.0634,-0.0636,-0.0637,-0.0702,-0.0702,-0.0703,-0.0703,-0.0717,-0.0716,-0.0716,0,0,0,0,0,0,0,0,0,0,0,0,0,-0.0555,-0.051,-0.0561,-0.0601,-0.0605,-0.0634,-0.0636,-0.0637,-0.0702,-0.0702,-0.0703,-0.0704,-0.0717,-0.0716,-0.0716,-0.07,0,0,-0.0716,-0.0716,0,0,0,0,0,0,0,0,-0.0552,-0.0557,-0.0595,-0.0599,-0.0603,-0.0657,-0.0622,-0.0654,-0.0701,-0.0668,-0.0703,-0.0704,-0.0689,-0.0691,-0.0708,-0.0701,-0.0701,-0.0716,-0.0716,-0.0716,-0.0716,0,0,0,0,0,0,0,-0.0549,-0.0555,-0.0593,-0.0595,-0.06,-0.0627,-0.0634,-0.0629,-0.0674,-0.0671,-0.0675,-0.0679,-0.0691,-0.0708,-0.0708,-0.0702,-0.0716,-0.0716,-0.0715,-0.0715,-0.0814,-0.0817,0,0,0,0,0,0,-0.0532,-0.0551,-0.0591,-0.0595,-0.0576,-0.0627,-0.0635,-0.0642,-0.0676,-0.0682,-0.0678,-0.0681,-0.0708,-0.0709,-0.0709,-0.0774,-0.0716,-0.0715,-0.0715,-0.0811,-0.0815,-0.0817,0,0,0,0,0,0,-0.053,-0.0535,-0.0588,-0.0572,-0.0581,-0.0626,-0.0633,-0.0642,-0.0675,-0.0681,-0.0687,-0.0703,-0.0709,-0.0709,-0.0747,-0.0772,-0.0715,-0.0715,-0.0808,-0.0812,-0.0816,-0.0852,0,0,0,0,0,0,-0.0529,-0.0534,-0.0542,-0.0571,-0.0581,-0.0616,-0.0633,-0.0643,-0.0674,-0.068,-0.0703,-0.0705,-0.0709,-0.0747,-0.0747,-0.0771,-0.0715,-0.0805,-0.081,-0.0815,-0.0847,-0.0856,-0.0864,0,0,0,0,0,-0.0527,-0.0527,-0.0542,-0.0547,-0.0587,-0.0617,-0.0625,-0.0661,-0.0674,-0.0693,-0.0728,-0.0705,-0.078,-0.0749,-0.0748,-0.0772,-0.0802,-0.0808,-0.0814,-0.0843,-0.0854,-0.0864,0,0,0,0,0,0,-0.0511,-0.0534,-0.0551,-0.056,-0.0592,-0.0627,-0.0646,-0.0666,-0.0709,-0.0718,-0.0728,-0.0733,-0.0775,-0.0777,-0.0743,-0.0823,-0.0791,-0.0797,-0.0814,-0.0824,-0.0833,-0.0835,-0.0715,0,0,0,0,0,-0.0508,-0.0515,-0.0547,-0.0557,-0.0575,-0.0613,-0.0632,-0.0656,-0.069,-0.0711,-0.0734,-0.0766,-0.0797,-0.0813,-0.0834,-0.0865,-0.0854,-0.0889,-0.0898,-0.0905,-0.0911,-0.0931,-0.0941,-0.0838,-0.0837,-0.0837,0,0,-0.0505,-0.0517,-0.0524,-0.0555,-0.0585,-0.0614,-0.0628,-0.0659,-0.0694,-0.0701,-0.0762,-0.0786,-0.0813,-0.0863,-0.0882,-0.0867,-0.0928,-0.0912,-0.0918,-0.092,-0.0938,-0.0948,-0.0956,-0.0842,-0.0841,-0.084,0,0,-0.0502,-0.0517,-0.053,-0.0557,-0.0595,-0.0618,-0.0628,-0.0677,-0.0714,-0.0767,-0.0792,-0.0836,-0.0882,-0.0913,-0.0931,-0.0998,-0.0969,-0.1016,-0.1059,-0.1079,-0.1087,-0.1093,-0.1077,-0.1082,-0.1024,-0.1024,-0.1025,0,-0.0508,-0.0518,-0.054,-0.0564,-0.0581,-0.062,-0.0643,-0.0689,-0.0748,-0.0782,-0.0794,-0.0891,-0.0905,-0.0967,-0.1012,-0.1012,-0.1016,-0.1008,-0.1087,-0.1093,-0.1099,-0.1081,-0.1086,-0.1027,-0.1027,-0.1026,-0.1026,0,-0.0513,-0.0535,-0.0545,-0.0586,-0.0609,-0.0632,-0.0685,-0.0734,-0.0777,-0.082,-0.0899,-0.094,-0.1001,-0.102,-0.1041,-0.1106,-0.109,-0.1085,-0.1048,-0.1111,-0.1089,-0.1093,-0.103,-0.103,-0.1029,-0.1028,0,0,-0.0506,-0.0542,-0.0551,-0.0567,-0.0618,-0.0633,-0.07,-0.0764,-0.0807,-0.0887,-0.0946,-0.1029,-0.1062,-0.1089,-0.1117,-0.1149,-0.1192,-0.1154,-0.1154,-0.1116,-0.1223,-0.1109,-0.1102,-0.1209,-0.121,-0.1211,-0.1183,0,-0.0515,-0.0536,-0.0559,-0.0594,-0.0609,-0.0663,-0.0711,-0.0776,-0.0841,-0.0914,-0.0986,-0.1055,-0.1086,-0.1125,-0.1166,-0.1185,-0.121,-0.1199,-0.1187,-0.1186,-0.106,-0.1106,-0.1216,-0.1186,-0.1186,-0.1187,-0.1188,0,-0.052,-0.0527,-0.0548,-0.0582,-0.0596,-0.0633,-0.0702,-0.075,-0.0862,-0.0922,-0.1015,-0.1077,-0.1162,-0.1172,-0.1233,-0.1233,-0.1244,-0.1248,-0.1247,-0.1131,-0.1081,-0.1117,-0.1195,-0.1194,-0.1194,-0.1193,-0.1193,0,-0.0478,-0.0524,-0.0527,-0.0542,-0.0592,-0.0631,-0.0668,-0.0761,-0.0803,-0.094,-0.0986,-0.1096,-0.1127,-0.1198,-0.122,-0.125,-0.1245,-0.1274,-0.1173,-0.1163,-0.1254,-0.1248,-0.1312,-0.1312,-0.1312,-0.1312,-0.1313,0,-0.0459,-0.0465,-0.0517,-0.0521,-0.0543,-0.0593,-0.0642,-0.0711,-0.0801,-0.0843,-0.0987,-0.103,-0.114,-0.1159,-0.1212,-0.1178,-0.1233,-0.1182,-0.1156,-0.127,-0.1266,-0.1255,-0.1249,-0.1311,-0.1312,-0.1312,-0.1312,0,-0.0403,-0.043,-0.0452,-0.0511,-0.0524,-0.0547,-0.0615,-0.0652,-0.0747,-0.0807,-0.0859,-0.0968,-0.1006,-0.1063,-0.1115,-0.1112,-0.1127,-0.1095,-0.1171,-0.115,-0.1044,-0.1041,-0.1024,-0.102,-0.1016,-0.1013,-0.1011,0,-0.0372,-0.0372,-0.0436,-0.0445,-0.0476,-0.0514,-0.0535,-0.0626,-0.0661,-0.076,-0.0775,-0.0839,-0.091,-0.0883,-0.0953,-0.1,-0.1003,-0.0991,-0.1082,-0.1042,-0.1019,-0.1021,-0.1023,-0.1005,-0.1004,-0.1003,-0.1003,0,-0.0309,-0.0346,-0.036,-0.0388,-0.0419,-0.0441,-0.0483,-0.05,-0.0591,-0.0668,-0.0716,-0.0775,-0.077,-0.083,-0.0818,-0.0872,-0.1007,-0.0956,-0.0966,-0.1053,-0.1019,-0.1001,-0.1006,-0.0991,-0.0992,-0.0993,-0.0994,0,-0.0273,-0.0276,-0.0305,-0.0326,-0.0347,-0.0363,-0.0405,-0.0445,-0.0487,-0.0604,-0.0598,-0.0688,-0.0739,-0.0756,-0.0771,-0.0782,-0.0828,-0.0849,-0.0866,-0.088,-0.0849,-0.0786,-0.0665,0,0,0,0,0,-0.0228,-0.0215,-0.023,-0.0256,-0.028,-0.0298,-0.0351,-0.0401,-0.0478,-0.0495,-0.0557,-0.0584,-0.0635,-0.0673,-0.0667,-0.071,-0.0813,-0.0699,-0.0841,-0.0924,-0.0938,-0.0917,0,0,0,0,0,0,-0.0196,-0.0191,-0.0204,-0.0185,-0.019,-0.0215,-0.0257,-0.0322,-0.0346,-0.0433,-0.0464,-0.0538,-0.0589,-0.0621,-0.0648,-0.0658,-0.0738,-0.0746,-0.0745,-0.0916,-0.0929,-0.094,-0.0923,0,0,0,0,0]},{"header":{"parameterUnit":"m.s-1","parameterCategory":2,"la1":30.2991,"la2":30.254,"lo1":-89.0895,"lo2":-89.0444,"dy":0.0017,"dx":0.0017,"nx":28,"ny":28,"refTime":"2025-03-14T09:00:00:Z","depth":"4","parameterNumber":3,"parameterNumberName":"V-component_of_CURRENTS"},"data":[0,0,0,0,0,0,0,0,0,0,0,0,0,0,0,0,0,0,0,0,0,0,0,0,0,0,0,0,0,0,0,0,0,0,0,0,0,0,0,0,0,0,0,0,0,0,0,0,0,0,0,0,0,0,0,0,0,0,-0.0411,-0.0411,0,-0.0413,-0.0413,-0.0413,-0.0392,-0.0391,-0.0391,-0.0391,-0.0385,-0.0385,-0.0386,0,0,0,0,0,0,0,0,0,0,0,0,0,-0.0385,-0.0385,-0.0411,-0.0411,-0.0411,-0.0413,-0.0413,-0.0413,-0.0392,-0.0391,-0.0391,-0.039,-0.0385,-0.0385,-0.0386,0,0,0,0,0,0,0,0,0,0,0,0,0,-0.0391,-0.0385,-0.0411,-0.0402,-0.0401,-0.0413,-0.0413,-0.0413,-0.0392,-0.0391,-0.0391,-0.039,-0.0385,-0.0385,-0.0386,-0.0403,0,0,-0.0387,-0.0387,0,0,0,0,0,0,0,0,-0.0391,-0.0392,-0.0403,-0.0402,-0.0401,-0.0402,-0.0402,-0.0409,-0.0392,-0.0394,-0.0391,-0.039,-0.0391,-0.0391,-0.0392,-0.0403,-0.0403,-0.0387,-0.0388,-0.0388,-0.0388,0,0,0,0,0,0,0,-0.0391,-0.0392,-0.0411,-0.0403,-0.0402,-0.0396,-0.0396,-0.0403,-0.0396,-0.0394,-0.0393,-0.0395,-0.0391,-0.0392,-0.0392,-0.0403,-0.0387,-0.0388,-0.0388,-0.0388,-0.0432,-0.0433,0,0,0,0,0,0,-0.0394,-0.0392,-0.041,-0.0411,-0.0395,-0.0397,-0.0397,-0.0402,-0.0396,-0.0395,-0.0396,-0.0394,-0.0391,-0.0391,-0.0391,-0.0426,-0.0388,-0.0388,-0.0388,-0.0431,-0.0432,-0.0433,0,0,0,0,0,0,-0.0393,-0.0395,-0.041,-0.0402,-0.0403,-0.0398,-0.0404,-0.0402,-0.0406,-0.0397,-0.0396,-0.0401,-0.0391,-0.0391,-0.0398,-0.0425,-0.0388,-0.0389,-0.043,-0.0431,-0.0433,-0.0487,0,0,0,0,0,0,-0.0392,-0.0395,-0.0404,-0.0402,-0.0404,-0.0424,-0.0405,-0.0403,-0.0408,-0.0406,-0.0402,-0.04,-0.039,-0.0398,-0.0399,-0.0425,-0.0389,-0.0429,-0.0431,-0.0432,-0.0484,-0.049,-0.0495,0,0,0,0,0,-0.0391,-0.0408,-0.0404,-0.0407,-0.0415,-0.0425,-0.0426,-0.0418,-0.0409,-0.0417,-0.0409,-0.04,-0.0409,-0.0399,-0.04,-0.0427,-0.0428,-0.043,-0.0432,-0.0481,-0.0488,-0.0494,0,0,0,0,0,0,-0.0404,-0.0408,-0.0403,-0.0421,-0.0425,-0.0422,-0.0433,-0.0425,-0.0426,-0.0424,-0.041,-0.0409,-0.0426,-0.0418,-0.0407,-0.0444,-0.0418,-0.0421,-0.0455,-0.0462,-0.0468,-0.0474,-0.0389,0,0,0,0,0,-0.0411,-0.0423,-0.0424,-0.0438,-0.0443,-0.0439,-0.0443,-0.0438,-0.0437,-0.0436,-0.0435,-0.0433,-0.0437,-0.0441,-0.0443,-0.0464,-0.0445,-0.0482,-0.0488,-0.0493,-0.0499,-0.0494,-0.05,-0.044,-0.044,-0.044,0,0,-0.0421,-0.0424,-0.0432,-0.0442,-0.0445,-0.0464,-0.044,-0.0452,-0.047,-0.0437,-0.0464,-0.0453,-0.0445,-0.0466,-0.0474,-0.0463,-0.0497,-0.0495,-0.0499,-0.0503,-0.0497,-0.0503,-0.0508,-0.0441,-0.0441,-0.0441,0,0,-0.0447,-0.0451,-0.0468,-0.0478,-0.0487,-0.0487,-0.0492,-0.0497,-0.05,-0.0518,-0.05,-0.0507,-0.0514,-0.0517,-0.0517,-0.0556,-0.0525,-0.0555,-0.0592,-0.0588,-0.0593,-0.0597,-0.0568,-0.0569,-0.056,-0.056,-0.056,0,-0.0458,-0.0483,-0.0476,-0.0499,-0.0518,-0.05,-0.0531,-0.0534,-0.0541,-0.0551,-0.0534,-0.0548,-0.0543,-0.0567,-0.0576,-0.0572,-0.0547,-0.0568,-0.0595,-0.0599,-0.0602,-0.0572,-0.0572,-0.0563,-0.0562,-0.0562,-0.0562,0,-0.0496,-0.0522,-0.0537,-0.0562,-0.0578,-0.0603,-0.0609,-0.0623,-0.0622,-0.0621,-0.0642,-0.0629,-0.0635,-0.0637,-0.0617,-0.0642,-0.0609,-0.06,-0.0578,-0.0611,-0.0577,-0.0577,-0.0567,-0.0566,-0.0565,-0.0564,0,0,-0.051,-0.0556,-0.0563,-0.0589,-0.0618,-0.0633,-0.067,-0.0696,-0.0717,-0.0715,-0.0744,-0.0744,-0.0723,-0.0721,-0.0701,-0.0696,-0.0694,-0.0657,-0.0655,-0.0628,-0.066,-0.057,-0.0561,-0.0683,-0.0683,-0.0684,-0.0622,0,-0.0546,-0.0602,-0.0619,-0.0678,-0.0711,-0.0722,-0.0758,-0.0775,-0.0782,-0.0802,-0.0786,-0.0802,-0.0759,-0.0763,-0.075,-0.0709,-0.0697,-0.071,-0.0632,-0.063,-0.0546,-0.0559,-0.0686,-0.0621,-0.0621,-0.0621,-0.0621,0,-0.0579,-0.0614,-0.0684,-0.0741,-0.0757,-0.0797,-0.085,-0.0873,-0.0891,-0.0897,-0.0898,-0.0875,-0.0869,-0.0831,-0.0772,-0.0776,-0.0724,-0.0687,-0.0684,-0.0583,-0.054,-0.0584,-0.062,-0.062,-0.062,-0.062,-0.062,0,-0.0589,-0.0658,-0.0719,-0.0742,-0.0804,-0.0848,-0.0879,-0.091,-0.0925,-0.096,-0.0959,-0.0949,-0.0925,-0.0881,-0.0777,-0.0782,-0.0694,-0.0697,-0.0568,-0.056,-0.0635,-0.0632,-0.0665,-0.0665,-0.0666,-0.0666,-0.0666,0,-0.0619,-0.0664,-0.0736,-0.0771,-0.084,-0.0876,-0.0941,-0.0967,-0.0996,-0.0988,-0.1001,-0.0967,-0.0932,-0.0861,-0.0795,-0.0656,-0.0705,-0.0571,-0.0542,-0.0657,-0.0657,-0.0634,-0.0631,-0.0663,-0.0664,-0.0664,-0.0665,0,-0.0619,-0.0667,-0.074,-0.0825,-0.0851,-0.0903,-0.0969,-0.0993,-0.1025,-0.1015,-0.1023,-0.0977,-0.087,-0.081,-0.0718,-0.0652,-0.0563,-0.0504,-0.061,-0.0588,-0.0431,-0.0432,-0.0377,-0.0373,-0.037,-0.0367,-0.0365,0,-0.0625,-0.0665,-0.077,-0.0809,-0.0858,-0.0931,-0.096,-0.1009,-0.1005,-0.0981,-0.0945,-0.0873,-0.0818,-0.0619,-0.0573,-0.046,-0.0434,-0.0411,-0.0446,-0.0426,-0.0404,-0.0409,-0.0414,-0.036,-0.036,-0.0359,-0.0358,0,-0.063,-0.0677,-0.0732,-0.0813,-0.087,-0.091,-0.0945,-0.0944,-0.0949,-0.0975,-0.0847,-0.0769,-0.0633,-0.0536,-0.0445,-0.0366,-0.0452,-0.0379,-0.0386,-0.0419,-0.0406,-0.0388,-0.0396,-0.0347,-0.0349,-0.035,-0.0351,0,-0.0629,-0.0664,-0.0732,-0.0802,-0.0855,-0.086,-0.09,-0.0861,-0.0858,-0.0817,-0.0756,-0.0659,-0.0615,-0.0479,-0.039,-0.0313,-0.0301,-0.0306,-0.0316,-0.0327,-0.0333,-0.0311,-0.0195,0,0,0,0,0,-0.0612,-0.0639,-0.0703,-0.0768,-0.0815,-0.0841,-0.0854,-0.0875,-0.087,-0.0757,-0.0757,-0.0622,-0.0474,-0.0421,-0.032,-0.0352,-0.0311,-0.0235,-0.0328,-0.0289,-0.0301,-0.0309,0,0,0,0,0,0,-0.06,-0.0652,-0.0685,-0.0711,-0.0744,-0.0773,-0.0786,-0.079,-0.0721,-0.0709,-0.0619,-0.0596,-0.0451,-0.0518,-0.0313,-0.0294,-0.034,-0.0177,-0.0175,-0.0282,-0.0293,-0.0303,-0.0315,0,0,0,0,0]}]]